Regional Weather Roundup
Issued by NWS

Home | Current Version | Previous Version | Text Only | Print | Product List | Glossary Off
Versions: 1 2 3 4 5 6 7 8 9 10 11 12 13 14 15 16 17 18 19 20 21 22 23 24 25 26 27 28

000
ASUS45 KCYS 150810
RWRWY

WYOMING REGIONAL WEATHER ROUNDUP
NATIONAL WEATHER SERVICE CHEYENNE WY
200 AM MDT TUE APR 15 2014

NOTE:  "FAIR" INDICATES FEW OR NO CLOUDS BELOW 12,000 FEET
WITH NO SIGNIFICANT WEATHER AND/OR OBSTRUCTIONS TO VISIBILITY.

WYZ001-150900-
YELLOWSTONE NATIONAL PARK

CITY           SKY/WX    TMP DP  RH WIND       PRES   REMARKS
LK YELLOWSTONE   N/A     19  10  68 CALM      30.08F
W YELLOWSTONE  NOT AVBL

$$
WYZ002>013-054>058-071-098>099-150900-
NORTHERN WYOMING

CITY           SKY/WX    TMP DP  RH WIND       PRES   REMARKS
JACKSON        CLEAR     28  16  59 S5        30.08F WCI  23
CODY           MOCLDY    46  10  23 W16G24    29.92F
GREYBULL       CLOUDY    32  24  72 E5        29.97F WCI  27
WORLAND        MOCLDY    33  22  63 S6        29.96F WCI  28
SHERIDAN       PTCLDY    31  21  66 S3        29.85F
BUFFALO        PTCLDY    34  15  46 NW7       29.87F WCI  28
GILLETTE       CLEAR     38  16  40 SW18      29.88F WCI  28
HULETT         FAIR     N/A N/A N/A SW6       29.90
NEWCASTLE      FAIR      23  19  86 CALM      29.97

$$
WYZ014>020-022>026-101>103-150900-
CENTRAL WYOMING

CITY           SKY/WX    TMP DP  RH WIND       PRES   REMARKS
BIG PINEY      MOCLDY    24  18  77 NE5       30.13F WCI  18
PINEDALE       MOSUNNY   21  18  86 NW5       30.14F WCI  15
DUBOIS         FAIR      32   3  29 N12G18    30.03F WCI  23
LANDER         CLOUDY    35  19  52 W8        30.00F WCI  29
RIVERTON       CLOUDY    34  15  46 SW8       30.01F WCI  27
CASPER         MOCLDY    35  18  49 SW16      29.98F WCI  25
DOUGLAS        CLEAR     24  19  81 VRB3      29.99F

$$
WYZ021-027>030-104>119-150900-
SOUTHERN WYOMING

CITY           SKY/WX    TMP DP  RH WIND       PRES   REMARKS
EVANSTON       PTCLDY    29   6  38 S8        30.16F WCI  21
KEMMERER       MOSUNNY   32  12  43 SW3       30.16
FORT BRIDGER   FAIR      32  12  42 SW9       30.18F WCI  24
ROCK SPRINGS   MOCLDY    36   4  26 SW14      30.13F WCI  27
DIXON          FAIR      26  19  74 CALM      30.21F
RAWLINS        PTCLDY    31  15  52 SW7G18    30.08F WCI  24
SARATOGA       FAIR      27  18  69 SE9       30.12F WCI  17
LARAMIE        CLEAR     27  15  61 W16       30.05F WCI  15
CHEYENNE       CLEAR     32  16  51 W17       30.02F WCI  21
TORRINGTON     CLEAR     24  20  84 SE6       30.01F WCI  17
PINE BLUFFS    FAIR      28  19  69 SW13      30.05F WCI  18

$$



USA.gov is the U.S. government's official web portal to all federal, state and local government web resources and services.